Regional Weather Roundup
Issued by NWS

Home | Current Version | Previous Version | Graphics & Text | Print | Product List | Glossary On
Versions: 1 2 3 4 5 6 7 8 9 10 11 12 13 14 15 16 17 18 19 20 21 22 23 24 25 26 27 28 29 30 31 32 33 34 35 36 37 38 39 40 41 42 43 44 45 46 47 48 49 50
000
ASUS43 KMKX 150010
RWRWI

WISCONSIN REGIONAL WEATHER ROUNDUP
NATIONAL WEATHER SERVICE MILWAUKEE/SULLIVAN WI
600 PM CST THU DEC 14 2017

NOTE: "FAIR" INDICATES FEW OR NO CLOUDS BELOW 12,000 FEET WITH NO
SIGNIFICANT WEATHER AND/OR OBSTRUCTIONS TO VISIBILITY.

WIZ001-002-006>008-014>016-023>028-150100-
NORTHWEST WISCONSIN

CITY           SKY/WX    TMP DP  RH WIND       PRES   REMARKS
SUPERIOR ARPT  CLOUDY    19  13  77 W6        29.98F WCI  11
6HR MIN TEMP:  19; 6HR MAX TEMP:  20;

ASHLAND        CLOUDY    17  12  80 SW8       29.96F WCI   7
6HR MIN TEMP:  17; 6HR MAX TEMP:  19; 6HR PCP: TRACE;

HAYWARD        FLURRIES  17  13  84 VRB3      29.95S
6HR MIN TEMP:  17; 6HR MAX TEMP:  19; 6HR PCP: TRACE;

SIREN          CLOUDY    19  13  76 W9        29.99F WCI   8
6HR MIN TEMP:  18; 6HR MAX TEMP:  19;

CUMBERLAND     FLURRIES  19  14  79 W12       29.96S WCI   7
RICE LAKE      CLOUDY    20  16  84 CALM      29.99S
6HR MIN TEMP:  19; 6HR MAX TEMP:  21;

CHETEK         CLOUDY    19  15  82 W6        29.98F WCI  11
6HR MIN TEMP:  19; 6HR MAX TEMP:  21;

LADYSMITH      FLURRIES  19  15  82 W8        29.97S WCI   9
6HR MIN TEMP:  19; 6HR MAX TEMP:  21;

EAU CLAIRE     FLURRIES  21  16  81 W7        29.99F WCI  12
6HR MIN TEMP:  21; 6HR MAX TEMP:  23; 6HR PCP: TRACE;

MENOMONIE      FLURRIES  22  17  81 W8        30.00F WCI  13
6HR MIN TEMP:  22; 6HR MAX TEMP:  25;

NEW RICHMOND   FLURRIES  21  16  81 NW8       30.00S WCI  11
6HR MIN TEMP:  20; 6HR MAX TEMP:  21;

OSCEOLA        CLOUDY    21  15  76 W9        30.04S WCI  11
6HR MIN TEMP:  20; 6HR MAX TEMP:  22;

$$

WIZ003>005-009-010-017-018-150100-
NORTH CENTRAL WISCONSIN

CITY           SKY/WX    TMP DP  RH WIND       PRES   REMARKS
MANITOWISH WTR LGT SNOW  15  15 100 CALM      29.89S
6HR MIN TEMP:  13; 6HR MAX TEMP:  15;

ARBOR VITAE    FLURRIES  17  15  91 CALM      29.88F
6HR MIN TEMP:  17; 6HR MAX TEMP:  17;

WOODRUFF       FLURRIES  17  15  91 CALM      29.88F
6HR MIN TEMP:  17; 6HR MAX TEMP:  17;

RHINELANDER    FLURRIES  18  15  88 W9        29.90F WCI   7
6HR MIN TEMP:  17; 6HR MAX TEMP:  18; 6HR PCP: TRACE;

EAGLE RIVER    FLURRIES  15  10  83 CALM      29.88F
6HR MIN TEMP:  14; 6HR MAX TEMP:  15;

LAND O LAKES   CLOUDY    15  11  87 CALM      29.90S
6HR MIN TEMP:  15; 6HR MAX TEMP:  17;

PHILLIPS       FLURRIES  17  15  90 W6        29.91S WCI   9
6HR MIN TEMP:  15; 6HR MAX TEMP:  18;

TOMAHAWK       LGT SNOW  17  15  89 CALM      29.92F
6HR MIN TEMP:  16; 6HR MAX TEMP:  19;

MEDFORD        FLURRIES  18  15  88 W6        29.93S WCI  10
6HR MIN TEMP:  16; 6HR MAX TEMP:  19;

MERRILL        FLURRIES  19  16  89 SW3       29.95S
6HR MIN TEMP:  18; 6HR MAX TEMP:  20;

$$

WIZ029-030-035-036-043>047-150100-
CENTRAL WISCONSIN

CITY           SKY/WX    TMP DP  RH WIND       PRES   REMARKS
WAUSAU         CLOUDY    18  15  88 SW5       29.94S WCI  11
6HR MIN TEMP:  18; 6HR MAX TEMP:  20; 6HR PCP: TRACE;

MOSINEE        CLOUDY    18  16  93 SW5       29.96S WCI  11
MARSHFIELD     CLOUDY    19  14  81 W5        29.95R WCI  12
6HR MIN TEMP:  17; 6HR MAX TEMP:  20; 6HR PCP: TRACE;

STEVENS POINT  CLOUDY    19  13  79 CALM      29.98R
6HR MIN TEMP:  18; 6HR MAX TEMP:  20;

WAUPACA        CLOUDY    24  16  71 CALM      29.99F
6HR MIN TEMP:  24; 6HR MAX TEMP:  28;

WAUTOMA        CLOUDY    21  13  71 SW7       30.01S WCI  12
6HR MIN TEMP:  21; 6HR MAX TEMP:  29;

WISC RAPIDS    CLOUDY    21  12  68 SW5       29.99S WCI  15
6HR MIN TEMP:  19; 6HR MAX TEMP:  23;

CAMP DOUGLAS   CLOUDY    23  12  62 SW5       30.00S WCI  17
6HR MIN TEMP:  23; 6HR MAX TEMP:  28; 6HR PCP: TRACE;

$$

WIZ011>013-019>022-031-037>040-048>050-150100-
NORTHEAST WISCONSIN

CITY           SKY/WX    TMP DP  RH WIND       PRES   REMARKS
ANTIGO         LGT SNOW  17  14  90 W6        29.93S WCI   8
6HR MIN TEMP:  16; 6HR MAX TEMP:  18;

SHAWANO        CLOUDY    23  17  77 CALM      29.98S
6HR MIN TEMP:  22; 6HR MAX TEMP:  25;

OCONTO         CLOUDY    21  16  81 CALM      29.99F
6HR MIN TEMP:  19; 6HR MAX TEMP:  21;

STURGEON BAY   FLURRIES  19  15  84 SW6       29.99S WCI  11
6HR MIN TEMP:  19; 6HR MAX TEMP:  22; 6HR PCP: TRACE;

GREEN BAY      CLOUDY    21  13  71 SW5       30.00S WCI  15
6HR MIN TEMP:  18; 6HR MAX TEMP:  22;

MANITOWOC      CLOUDY    16  10  77 SW5       30.02  WCI   9
6HR MIN TEMP:  16; 6HR MAX TEMP:  26;

APPLETON       CLOUDY    21  10  63 W5        29.98S WCI  15
CLINTONVILLE   NOT AVBL
OSHKOSH        CLOUDY    21  13  71 CALM      30.00S
6HR MIN TEMP:  19; 6HR MAX TEMP:  22;

$$

WIZ032>034-041-042-053>061-150100-
SOUTHWEST WISCONSIN

CITY           SKY/WX    TMP DP  RH WIND       PRES   REMARKS
LA CROSSE      CLOUDY    26  16  65 SW5       30.01F WCI  20
6HR MIN TEMP:  24; 6HR MAX TEMP:  27;

SPARTA         CLOUDY    24  13  64 CALM      30.01S
6HR MIN TEMP:  24; 6HR MAX TEMP:  27;

VIROQUA        CLOUDY    23  17  78 SW7       29.98S WCI  15
6HR MIN TEMP:  22; 6HR MAX TEMP:  25;

BOSCOBEL       CLOUDY    26  13  57 S5        30.04S WCI  20
6HR MIN TEMP:  25; 6HR MAX TEMP:  29;

PRAIRIE DU CHI CLOUDY    27  14  57 SW6       30.04S WCI  21
6HR MIN TEMP:  26; 6HR MAX TEMP:  28;

PLATTEVILLE    CLOUDY    23  14  68 SW6       30.04R WCI  16
6HR MIN TEMP:  20; 6HR MAX TEMP:  28;

$$

WIZ056-057-062-063-064-067-068-150100-
SOUTH CENTRAL WISCONSIN

CITY           SKY/WX    TMP DP  RH WIND       PRES   REMARKS
REEDSBURG      CLOUDY    23  12  62 SW5       30.01S WCI  17
6HR MIN TEMP:  23; 6HR MAX TEMP:  26;

BARABOO/DELLS  CLOUDY    23  12  63 SW5       30.01S WCI  17
6HR MIN TEMP:  23; 6HR MAX TEMP:  26;

LONE ROCK      CLOUDY    23  16  74 CALM      30.04S
6HR MIN TEMP:  22; 6HR MAX TEMP:  26;

MINERAL POINT  PTCLDY    23  14  68 SW6       30.01S WCI  16
MADISON        CLOUDY    23  12  62 CALM      30.03S
6HR MIN TEMP:  21; 6HR MAX TEMP:  26;

MIDDLETON      CLOUDY    24  14  64 SW3       30.03S
6HR MIN TEMP:  23; 6HR MAX TEMP:  29;

WATERTOWN      CLOUDY    15  11  85 CALM      30.03S
6HR MIN TEMP:  13; 6HR MAX TEMP:  24;

MONROE         CLEAR     19   9  63 SW7       30.03S WCI  10
JANESVILLE     CLEAR     25   9  50 CALM      30.05R
$$

WIZ051-052-058>065-066-070>072-150100-
SOUTHEAST WISCONSIN

CITY           SKY/WX    TMP DP  RH WIND       PRES   REMARKS
MILWAUKEE      PTCLDY    21  11  65 W3        30.06R
6HR MIN TEMP:  21; 6HR MAX TEMP:  25;

WAUKESHA       CLEAR     16   9  73 SW3       30.05R
MILWAUKEE/TIMM CLEAR     18   9  68 CALM      30.06R
RACINE         CLEAR     20   9  62 CALM      30.08R
6HR MIN TEMP:  19; 6HR MAX TEMP:  24;

BURLINGTON     CLEAR     15  10  82 CALM      30.06R
6HR MIN TEMP:  13; 6HR MAX TEMP:  26;

KENOSHA        PTCLDY    18   7  62 CALM      30.06R
6HR MIN TEMP:  18; 6HR MAX TEMP:  26;

FOND DU LAC    CLOUDY    21  10  62 SW6       30.02S WCI  13
6HR MIN TEMP:  18; 6HR MAX TEMP:  22; 6HR PCP: TRACE;

SHEBOYGAN      PTCLDY    14   9  80 CALM      30.02S
6HR MIN TEMP:  10; 6HR MAX TEMP:  21;

WEST BEND      CLEAR     12  10  92 SW3       30.03S
JUNEAU         CLOUDY    17  10  72 S5        30.03S WCI  10
6HR MIN TEMP:  16; 6HR MAX TEMP:  21;

$$

LSZ147-162-150100-
LAKE SUPERIOR

STATION/POSITION TIME  TEMP    WIND        PRES    WAVE
                       AIR SEA DIR/SP/G            HT/PER
                 (UTC) (F)     (DEG/KT/KT) (MB)    (FT/S)
DEVILS ISLAND    0000   22     260/ 16/ 20 1014.7F
SAXON HARBOR     2340   19                 1014.2F
$$

LMZ867-665-643>646-150100-
LAKE MICHIGAN

STATION/POSITION TIME  TEMP    WIND        PRES    WAVE
                       AIR SEA DIR/SP/G            HT/PER




USA.gov is the U.S. government's official web portal to all federal, state and local government web resources and services.